Andover, NJ

1:47 PM EDT on September 27, 2016 (GMT -0400)
Andover

Weather History for K12N - August, 2013

Change the Weather History Date:

Saturday, August 17, 2013

  Actual Average (KFWN) Record (KFWN)
Temperature  
Mean Temperature 66 °F -  
Max Temperature 80 °F 80 °F 93 °F (1965)
Min Temperature 53 °F 55 °F 39 °F (1979)
Cooling Degree Days 1    
Growing Degree Days 16 (Base 50)    
Moisture  
Dew Point 57 °F    
Average Humidity 76    
Maximum Humidity 96    
Minimum Humidity 45    
Precipitation  
Precipitation 0.00 in - - ()
Sea Level Pressure  
Sea Level Pressure 30.26 in    
Wind  
Wind Speed 0 mph (NNE)    
Max Wind Speed 5 mph    
Max Gust Speed -    
Averages and records for this station are not official NWS values.
T = Trace of Precipitation, MM = Missing Value Source: NWS Daily Summary

Daily Weather History Graph

Daily Weather History Graph

Search for Another Location

Airport or City:

Trip Planner

Search our weather history database for the weather conditions in past years. The results will help you decide how hot, cold, wet, or windy it might be!

Date:

Astronomy

Aug. 17, 2013 Rise Set
Actual Time 6:10 AM EDT 7:54 PM EDT
Civil Twilight 5:41 AM EDT 8:23 PM EDT
Nautical Twilight 5:05 AM EDT 8:58 PM EDT
Astronomical Twilight 4:27 AM EDT 9:36 PM EDT
Moon 5:08 PM EDT (8/17) 2:10 AM EDT (8/17)
Length of Visible Light 14h 41m
Length of Day
13h 43m
Waxing Gibbous, 84% of the Moon is Illuminated
Aug 17
Waxing Gibbous
Aug 20
Full
Aug 28
Last Quarter
Sep 5
New
Sep 12
First Quarter

Hourly Weather History & Observations

Time (EDT) Temp. Dew Point Humidity Pressure Visibility Wind Dir Wind Speed Gust Speed Precip Events Conditions
12:54 AM 57.9 °F 55.0 °F 90% 30.23 in - Calm Calm - N/A   Unknown
1:54 AM 57.0 °F 55.0 °F 93% 30.23 in - Calm Calm - N/A   Unknown
2:54 AM 55.9 °F 53.1 °F 90% 30.24 in - Calm Calm - N/A   Unknown
3:54 AM 55.0 °F 53.1 °F 93% 30.24 in - Calm Calm - N/A   Unknown
4:54 AM 55.0 °F 53.1 °F 93% 30.25 in - Calm Calm - N/A   Unknown
5:54 AM 53.1 °F 52.0 °F 96% 30.25 in - Calm Calm - N/A   Unknown
6:54 AM 55.0 °F 53.1 °F 93% 30.27 in - Calm Calm - N/A   Unknown
7:54 AM 59.0 °F 55.9 °F 90% 30.28 in - Calm Calm - N/A   Unknown
8:54 AM 64.0 °F 57.9 °F 80% 30.29 in - Calm Calm - N/A   Unknown
9:54 AM 68.0 °F 57.9 °F 70% 30.29 in - Variable 3.5 mph - N/A   Unknown
10:54 AM 72.0 °F 60.1 °F 66% 30.29 in - NE 3.5 mph - N/A   Unknown
11:54 AM 75.9 °F 59.0 °F 56% 30.28 in - NE 4.6 mph - N/A   Unknown
12:54 PM 75.9 °F 54.0 °F 46% 30.27 in - Calm Calm - N/A   Unknown
1:54 PM 79.0 °F 55.9 °F 45% 30.26 in - North 3.5 mph - N/A   Unknown
2:54 PM 79.0 °F 55.9 °F 45% 30.25 in - Calm Calm - N/A   Unknown
3:54 PM 77.0 °F 57.9 °F 52% 30.25 in - Calm Calm - N/A   Unknown
4:54 PM 78.1 °F 55.9 °F 46% 30.24 in - Calm Calm - N/A   Unknown
5:54 PM 77.0 °F 62.1 °F 60% 30.25 in - Calm Calm - N/A   Unknown
6:54 PM 72.0 °F 63.0 °F 73% 30.25 in - Calm Calm - N/A   Unknown
7:54 PM 68.0 °F 62.1 °F 81% 30.26 in - Calm Calm - N/A   Unknown
8:54 PM 66.0 °F 62.1 °F 87% 30.26 in - Calm Calm - N/A   Unknown
9:54 PM 64.0 °F 61.0 °F 90% 30.27 in - Calm Calm - N/A   Unknown
10:54 PM 64.0 °F 61.0 °F 90% 30.27 in - Calm Calm - N/A   Unknown
11:54 PM 62.1 °F 60.1 °F 93% 30.27 in - Calm Calm - N/A   Unknown